Preview of NWS' New Version of Forecast
This preview is not operational and should not be used for support decisions.

Regional Weather Roundup (RWR)

Issued by National Weather Service (NWS)

                            
000
ASCA42 TJSJ 210610
RWRPR 
PUERTO RICO/U.S. VIRGIN ISLANDS HOURLY WEATHER ROUNDUP
NATIONAL WEATHER SERVICE SAN JUAN PR
200 AM AST TUE MAY 21 2019

PRZ001>002-007>008-010-210700-
PUERTO RICO
  
CITY           SKY/WX    TMP DP  RH WIND       PRES   REMARKS
SAN JUAN LMM   PTCLDY    79  73  83 S3        29.96F                  
CEIBA          PTCLDY    81  73  78 SE7       29.98F                  
$$

VIZ001>002-210700-
U.S. VIRGIN ISLANDS
  
CITY           SKY/WX    TMP DP  RH WIND       PRES   REMARKS
CHARLOTTE AMA  PTCLDY    81  72  74 SE12      29.96F                  
CHRISTIANSTED  PTCLDY    79  72  78 E13       29.97F                  
$$

HOURLY WEATHER ROUNDUP FOR THE NEWS MEDIA
  
CITY           SKY/WX    TMP DP  RH WIND       PRES   REMARKS
ORLANDO        FAIR      76  70  82 S5        29.98F                  
NEW YORK       FAIR      67  51  56 NW23G29   29.80R                  
NEWARK         FAIR      66  49  54 NW14      29.81R                  
CHICAGO        CLOUDY    47  35  63 N6        30.14F                  
HARTFORD       FAIR      62  60  93 VRB6      29.69S                  
BOSTON         FAIR      68  48  48 NW18G28   29.68S                  
DALLAS         CLOUDY    79  68  69 S17G30    29.56F                  
PHILADELPHIA   FAIR      70  52  52 N15       29.84R                  
LOS ANGELES    MOCLDY    58  51  78 W10       29.97S                  
WASHINGTON DC  FAIR      68  51  54 NW14      29.91S